User: anonymous   Login
Location: Sungai Laei
(2.6000°N, 113.7167°E)
Time: 12:12:57
(UTC+00:00)
Language:

BLOCK DM-SL R/B - Orbit

View from above orbital plane
View from above orbital plane
View from above satellite
View from above satellite

Ground track
Ground track

The orbit data is extracted from the following two-line orbital elements,

1 26725U 01012B   22227.45276375 -.00000049  00000-0  55907-2 0  9992
2 26725   0.7852 111.8618 7044111 263.4431   3.4097  2.23574573174961
Epoch (UTC): 15 August 2022 10:51:58
Eccentricity: 0.7044111
inclination: 0.7852°
perigee height: 924 km
apogee height: 35729 km
right ascension of ascending node: 111.8618°
argument of perigee: 263.4431°
revolutions per day: 2.23574573
mean anomaly at epoch: 3.4097°
orbit number at epoch: 17496

The dashed part of the orbit path shows where the satellite is in the earth's shadow,  

DLR